This demonstration page uses our WeatherBlox Daily Observations layout. Learn more.

Left ArrowRight Arrow

Hourly Observations for September 28, 2022

Temp ( °F °C ) Dew Point ( °F °C ) Humidity (%) Winds ( mph kmh ) Pressure ( in mb ) Visibility ( mi km ) Precip ( " mm )
12:15 am 00:15 Clear 52 11 45 7 76 76 W 3 6 30.11 1020 10 16 0.00 0.00
12:35 am 00:35 Clear 48 9 45 7 87 87 WNW 12 19 30.12 1020 10 16 0.00 0.00
12:55 am 00:55 Clear 54 12 43 6 67 67 N 5 7 30.11 1020 10 16 0.00 0.00
1:15 am 01:15 Clear 52 11 43 6 71 71 NW 6 9 30.11 1020 10 16 0.00 0.00
1:35 am 01:35 Clear 50 10 43 6 76 76 WNW 9 15 30.12 1020 10 16 0.00 0.00
1:55 am 01:55 Clear 50 10 43 6 76 76 NW 7 11 30.12 1020 10 16 0.00 0.00
2:15 am 02:15 Clear 50 10 43 6 76 76 NNW 6 9 30.12 1020 10 16 0.00 0.00
2:35 am 02:35 Clear 52 11 43 6 71 71 WNW 7 11 30.11 1020 10 16 0.00 0.00
2:55 am 02:55 Clear 52 11 43 6 71 71 WNW 9 15 30.11 1020 10 16 0.00 0.00
3:15 am 03:15 Clear 52 11 45 7 76 76 NW 6 9 30.13 1020 10 16 0.00 0.00
3:35 am 03:35 Clear 52 11 43 6 71 71 Calm 30.13 1020 10 16 0.00 0.00
3:55 am 03:55 Clear 52 11 43 6 71 71 SSE 3 6 30.13 1020 10 16 0.00 0.00
4:15 am 04:15 Clear 50 10 45 7 82 82 Calm 30.14 1021 10 16 0.00 0.00
4:35 am 04:35 Clear 52 11 43 6 71 71 WNW 5 7 30.14 1021 10 16 0.00 0.00
4:55 am 04:55 Clear 50 10 45 7 82 82 WNW 7 11 30.15 1021 10 16 0.00 0.00
5:15 am 05:15 Clear 50 10 45 7 82 82 WNW 9 15 30.15 1021 10 16 0.00 0.00
5:35 am 05:35 Clear 50 10 45 7 82 82 W 5 7 30.15 1021 10 16 0.00 0.00
5:55 am 05:55 Clear 50 10 43 6 76 76 WNW 5 7 30.16 1021 10 16 0.00 0.00
6:15 am 06:15 Clear 48 9 45 7 87 87 WNW 8 13 30.16 1021 10 16 0.00 0.00
6:35 am 06:35 Clear 50 10 45 7 82 82 W 7 11 30.16 1021 10 16 0.00 0.00
6:55 am 06:55 Clear 50 10 45 7 82 82 SSE 3 6 30.18 1022 10 16 0.00 0.00
7:15 am 07:15 Sunny 50 10 45 7 82 82 SSW 6 9 30.18 1022 10 16 0.00 0.00
7:35 am 07:35 Sunny 48 9 45 7 87 87 Calm 30.19 1022 10 16 0.00 0.00
7:55 am 07:55 Sunny 50 10 45 7 82 82 W 6 9 30.19 1022 10 16 0.00 0.00
8:15 am 08:15 Sunny 52 11 45 7 76 76 WNW 5 7 30.19 1022 10 16 0.00 0.00
8:35 am 08:35 Sunny 54 12 45 7 71 71 W 5 7 30.19 1022 10 16 0.00 0.00
8:55 am 08:55 Sunny 54 12 45 7 71 71 W 5 7 30.20 1023 10 16 0.00 0.00
9:15 am 09:15 Sunny 55 13 46 8 72 72 Calm 30.21 1023 10 16 0.00 0.00
9:35 am 09:35 Sunny 57 14 46 8 67 67 NNW 10 17 30.21 1023 10 16 0.00 0.00
9:55 am 09:55 Sunny 59 15 46 8 63 63 NNW 10 17 30.22 1023 10 16 0.00 0.00
10:15 am 10:15 Sunny 59 15 46 8 63 63 N 12 19 30.22 1023 10 16 0.00 0.00
10:35 am 10:35 Sunny 59 15 48 9 67 67 NNW 14 22 30.23 1024 10 16 0.00 0.00
10:55 am 10:55 Sunny 61 16 48 9 63 63 NW 9 15 30.23 1024 10 16 0.00 0.00
11:15 am 11:15 Sunny 61 16 48 9 63 63 NNW 12 19 30.23 1024 10 16 0.00 0.00
11:35 am 11:35 Sunny 63 17 50 10 63 63 WNW 13 20 30.23 1024 10 16 0.00 0.00
11:55 am 11:55 Sunny 63 17 50 10 63 63 NW 14 22 30.22 1023 10 16 0.00 0.00
12:15 pm 12:15 Sunny 64 18 50 10 59 59 NNW 13 20 30.22 1023 10 16 0.00 0.00
12:35 pm 12:35 Sunny 64 18 50 10 59 59 N 13 20 30.22 1023 10 16 0.00 0.00
12:55 pm 12:55 Mostly Cloudy 64 18 52 11 64 64 NNW 8 13 30.22 1024 10 16 0.00 0.00
1:15 pm 13:15 Mostly Cloudy 64 18 50 10 59 59 N 9 15 30.22 1024 10 16 0.00 0.00
1:35 pm 13:35 Mostly Cloudy 64 18 50 10 59 59 N 13 20 30.22 1024 10 16 0.00 0.00
1:55 pm 13:55 Cloudy 63 17 50 10 63 63 NNW 13 20 30.22 1023 10 16 0.00 0.00
2:15 pm 14:15 Mostly Cloudy 64 18 52 11 64 64 N 12 19 30.22 1023 10 16 0.00 0.00
2:35 pm 14:35 Mostly Cloudy 68 20 52 11 56 56 N 13 20 30.21 1023 10 16 0.00 0.00
2:55 pm 14:55 Partly Cloudy 64 18 50 10 59 59 NNW 15 24 30.22 1023 10 16 0.00 0.00
3:15 pm 15:15 Partly Cloudy 64 18 50 10 59 59 N 13 20 30.22 1023 10 16 0.00 0.00
3:35 pm 15:35 Mostly Cloudy 66 19 50 10 56 56 N 14 22 30.22 1023 10 16 0.00 0.00
3:55 pm 15:55 Mostly Cloudy 68 20 50 10 53 53 N 12 19 30.21 1023 10 16 0.00 0.00
4:15 pm 16:15 Partly Cloudy 64 18 50 10 59 59 N 13 20 30.22 1024 10 16 0.00 0.00
4:35 pm 16:35 Sunny 68 20 50 10 53 53 N 9 15 30.21 1023 10 16 0.00 0.00
4:55 pm 16:55 Mostly Cloudy 64 18 50 10 59 59 N 12 19 30.22 1024 10 16 0.00 0.00
5:15 pm 17:15 Partly Cloudy 66 19 52 11 60 60 NNW 9 15 30.22 1023 10 16 0.00 0.00
5:35 pm 17:35 Partly Cloudy 64 18 50 10 59 59 N 12 19 30.23 1024 10 16 0.00 0.00
5:55 pm 17:55 Mostly Cloudy 64 18 50 10 59 59 N 8 13 30.23 1024 10 16 0.00 0.00
6:15 pm 18:15 Partly Cloudy 64 18 50 10 59 59 NNW 10 17 30.25 1024 10 16 0.00 0.00
6:35 pm 18:35 Mostly Cloudy 63 17 50 10 63 63 NW 10 17 30.25 1024 10 16 0.00 0.00
6:55 pm 18:55 Mostly Cloudy 61 16 50 10 68 68 NW 9 15 30.25 1024 10 16 0.00 0.00
7:15 pm 19:15 Mostly Cloudy 61 16 52 11 72 72 NW 7 11 30.26 1025 10 16 0.00 0.00
7:35 pm 19:35 Partly Cloudy 59 15 52 11 77 77 NNW 3 6 30.26 1025 10 16 0.00 0.00
7:55 pm 19:55 Clear 59 15 52 11 77 77 NW 6 9 30.27 1025 10 16 0.00 0.00
8:15 pm 20:15 Clear 59 15 52 11 77 77 NNW 5 7 30.27 1025 10 16 0.00 0.00
8:35 pm 20:35 Clear 57 14 50 10 77 77 NNW 7 11 30.28 1025 10 16 0.00 0.00
8:55 pm 20:55 Clear 59 15 50 10 72 72 N 5 7 30.29 1026 10 16 0.00 0.00
9:15 pm 21:15 Clear 57 14 50 10 77 77 N 6 9 30.29 1026 10 16 0.00 0.00
9:35 pm 21:35 Clear 57 14 50 10 77 77 N 6 9 30.30 1026 10 16 0.00 0.00
9:55 pm 21:55 Clear 57 14 50 10 77 77 NNW 12 19 30.29 1026 10 16 0.00 0.00
10:15 pm 22:15 Clear 57 14 50 10 77 77 NNW 12 19 30.30 1026 10 16 0.00 0.00
10:35 pm 22:35 Clear 57 14 50 10 77 77 N 8 13 30.31 1026 10 16 0.00 0.00
10:55 pm 22:55 Clear 57 14 50 10 77 77 N 8 13 30.31 1026 10 16 0.00 0.00
11:15 pm 23:15 Clear 55 13 50 10 82 82 N 8 13 30.32 1027 10 16 0.00 0.00
11:35 pm 23:35 Clear 55 13 50 10 82 82 N 8 13 30.32 1027 10 16 0.00 0.00
11:55 pm 23:55 Clear 55 13 50 10 82 82 N 6 9 30.33 1027 10 16 0.00 0.00

Powered by AerisWeather